Vorticity
7 7 7 7 6 7 8 8 8 8 8 9 11 9 8 9 7 7 7 7 7 7
6 7 9 10 11 11 12 13 12 12 11 10 9 11 11 13 11 14 11 13 12 10
9 10 11 11 12 15 16 16 16 16 15 15 14 15 15 13 11 12 10 11 11 12
11 13 13 12 12 12 13 13 12 12 11 12 12 11 10 9 8 6 9 10 13 17
13 13 12 12 12 12 10 9 9 10 10 9 9 9 10 9 7 10 9 15 14 10
11 10 12 10 8 8 7 8 10 11 11 12 12 13 13 8 9 10 11 11 15 19
10 10 9 8 8 8 11 16 16 13 12 9 13 12 9 7 13 8 11 7 2 15
11 9 10 10 12 16 18 18 14 11 11 12 15 11 11 7 16 6 21 13 -4 35
18 14 12 15 11 13 15 13 14 16 14 14 13 24 17 9 15 19 13 12 21 10
12 15 10 12 15 16 16 16 12 12 14 19 22 24 27 23 28 29 36 27 22 19
18 19 21 20 17 16 20 25 26 20 18 20 18 9 0 1 5 7 8 8 8 7
10 12 15 16 15 10 6 6 8 4 2 4 6 7 5 4 5 7 7 7 7 8
11 11 10 9 7 7 6 6 8 6 5 5 5 5 4 5 5 6 6 6 6 6
9 8 7 7 7 7 7 5 5 5 6 6 7 7 7 7 7 6 6 6 7 7
Height
3102 3102 3102 3102 3101 3101 3099 3098 3097 3096 3096 3097 3098 3097 3095 3094 3090 3089 3088 3086 3085 3083
3095 3094 3093 3092 3092 3091 3089 3088 3087 3087 3086 3086 3086 3086 3086 3085 3083 3082 3080 3078 3076 3073
3086 3085 3084 3083 3083 3082 3081 3080 3079 3078 3078 3077 3076 3076 3076 3076 3074 3073 3071 3068 3066 3064
3078 3077 3076 3076 3075 3074 3073 3072 3071 3070 3069 3069 3069 3068 3068 3067 3066 3064 3062 3059 3057 3055
3070 3069 3069 3069 3068 3068 3067 3066 3064 3063 3062 3062 3062 3061 3060 3059 3058 3056 3054 3051 3049 3047
3063 3063 3063 3062 3061 3061 3060 3059 3058 3057 3057 3056 3055 3054 3053 3052 3051 3049 3047 3044 3041 3040
3057 3057 3056 3056 3055 3053 3053 3052 3052 3051 3050 3049 3048 3048 3047 3047 3044 3043 3040 3038 3036 3034
3051 3050 3050 3049 3048 3047 3047 3046 3045 3045 3044 3043 3043 3043 3041 3040 3038 3036 3034 3033 3030 3027
3044 3044 3044 3043 3044 3043 3042 3041 3041 3039 3039 3038 3037 3036 3034 3034 3033 3031 3029 3027 3026 3024
3040 3040 3040 3040 3040 3038 3038 3038 3038 3036 3035 3034 3033 3031 3031 3031 3030 3027 3025 3024 3022 3020
3037 3037 3037 3036 3036 3036 3036 3035 3035 3034 3033 3032 3031 3031 3031 3029 3028 3026 3023 3021 3019 3016
3036 3036 3036 3036 3036 3035 3035 3034 3034 3034 3034 3032 3032 3031 3029 3027 3026 3023 3021 3018 3015 3013
3035 3036 3036 3036 3034 3034 3034 3034 3034 3033 3033 3032 3031 3029 3027 3025 3023 3021 3018 3015 3012 3010
3036 3036 3036 3034 3033 3034 3034 3033 3033 3032 3031 3030 3029 3027 3025 3023 3020 3017 3014 3011 3008 3005